Green Bay, WI

3:37 PM CDT on May 29, 2017 (GMT -0500)
Austin Straubel International

Weather History for KGRB - June, 2014

Change the Weather History Date:

Saturday, June 28, 2014

  Actual Average Record
Temperature  
Mean Temperature 77 °F 68 °F  
Max Temperature 86 °F 79 °F 98 °F (1931)
Min Temperature 68 °F 57 °F 46 °F (1954)
Degree Days  
Heating Degree Days 0 1  
Month to date heating degree days 31 89  
Since 1 June heating degree days 31 89  
Since 1 July heating degree days 8771 7952  
Cooling Degree Days 12 4  
Month to date cooling degree days 85 74  
Year to date cooling degree days 101 92  
Since 1 June cooling degree days 85 74  
Growing Degree Days 27 (Base 50)    
Moisture  
Dew Point 68 °F    
Average Humidity 74    
Maximum Humidity 90    
Minimum Humidity 57    
Precipitation  
Precipitation 0.00 in 0.12 in 1.60 in (1942)
Month to date precipitation 3.72 3.63  
Year to date precipitation 14.38 13.28  
Snow  
Snow 0.00 in 0.00 in 0.00 in ()
Month to date snowfall 0.0 0.0  
Since 1 June snowfall 0.0 0.0  
Since 1 July snowfall 72.1 51.4  
Snow Depth 0.00 in    
Sea Level Pressure  
Sea Level Pressure 29.94 in    
Wind  
Wind Speed 13 mph (SSE)    
Max Wind Speed 23 mph    
Max Gust Speed 29 mph    
Visibility 10 miles    
Events      
T = Trace of Precipitation, MM = Missing Value Source: NWS Daily Summary

Daily Weather History Graph

Daily Weather History Graph

Search for Another Location

Airport or City:

Trip Planner

Search our weather history database for the weather conditions in past years. The results will help you decide how hot, cold, wet, or windy it might be!

Date:

Astronomy

Jun. 28, 2014 Rise Set
Actual Time 5:10 AM CDT 8:41 PM CDT
Civil Twilight 4:33 AM CDT 9:18 PM CDT
Nautical Twilight 3:44 AM CDT 10:06 PM CDT
Astronomical Twilight 2:42 AM CDT 11:08 PM CDT
Moon 6:38 AM CDT (6/28) 9:19 PM CDT (6/28)
Length of Visible Light 16h 44m
Length of Day
15h 31m
New Moon, 2% of the Moon is Illuminated
Jun 28
New Moon
Jul 5
First Quarter
Jul 12
Full
Jul 18
Last Quarter
Jul 26
New

Hourly Weather History & Observations

Time (CDT) Temp. Heat Index Dew Point Humidity Pressure Visibility Wind Dir Wind Speed Gust Speed Precip Events Conditions
12:53 AM 72.0 °F - 64.0 °F 76% 29.97 in 10.0 mi South 10.4 mph - N/A   Clear
1:53 AM 69.1 °F - 64.0 °F 84% 29.98 in 10.0 mi South 4.6 mph - N/A   Clear
2:53 AM 68.0 °F - 64.0 °F 87% 29.97 in 9.0 mi SSE 5.8 mph - N/A   Partly Cloudy
3:53 AM 70.0 °F - 64.9 °F 84% 29.96 in 10.0 mi SSE 6.9 mph - N/A   Clear
4:53 AM 70.0 °F - 64.9 °F 84% 29.97 in 9.0 mi SSE 5.8 mph - N/A   Clear
5:53 AM 70.0 °F - 66.0 °F 87% 29.97 in 7.0 mi SE 5.8 mph - N/A   Clear
6:53 AM 71.1 °F - 64.9 °F 81% 29.99 in 8.0 mi SSE 9.2 mph - N/A   Clear
7:53 AM 75.0 °F - 66.9 °F 76% 29.99 in 9.0 mi South 6.9 mph - N/A   Clear
8:53 AM 77.0 °F - 68.0 °F 74% 29.99 in 10.0 mi South 12.7 mph - N/A   Clear
9:53 AM 81.0 °F 84.4 °F 70.0 °F 69% 29.99 in 10.0 mi South 12.7 mph 20.7 mph N/A   Clear
10:53 AM 82.9 °F 85.8 °F 68.0 °F 60% 29.97 in 10.0 mi SSE 18.4 mph - N/A   Clear
11:53 AM 84.0 °F 87.8 °F 69.1 °F 61% 29.98 in 10.0 mi SSE 17.3 mph - N/A   Clear
12:53 PM 86.0 °F 90.7 °F 70.0 °F 59% 29.96 in 10.0 mi South 17.3 mph - N/A   Scattered Clouds
1:53 PM 86.0 °F 90.1 °F 69.1 °F 57% 29.95 in 10.0 mi SSE 16.1 mph - N/A   Scattered Clouds
2:53 PM 84.0 °F 89.0 °F 71.1 °F 65% 29.93 in 10.0 mi SSE 15.0 mph 21.9 mph N/A   Scattered Clouds
3:53 PM 84.9 °F 90.1 °F 71.1 °F 63% 29.91 in 10.0 mi South 17.3 mph - N/A   Clear
4:53 PM 81.0 °F 83.8 °F 68.0 °F 65% 29.92 in 10.0 mi South 12.7 mph 21.9 mph N/A   Clear
5:53 PM 82.0 °F 85.5 °F 69.1 °F 65% 29.89 in 10.0 mi SSE 18.4 mph 24.2 mph N/A   Clear
6:53 PM 80.1 °F 82.9 °F 69.1 °F 69% 29.89 in 10.0 mi SSE 17.3 mph - N/A   Clear
7:53 PM 78.1 °F - 69.1 °F 74% 29.87 in 10.0 mi SSE 15.0 mph 23.0 mph N/A   Clear
8:53 PM 75.9 °F - 68.0 °F 76% 29.86 in 10.0 mi SSE 19.6 mph 25.3 mph N/A   Clear
9:53 PM 75.9 °F - 68.0 °F 76% 29.89 in 10.0 mi South 17.3 mph 23.0 mph N/A   Clear
10:53 PM 75.0 °F - 69.1 °F 82% 29.87 in 10.0 mi South 15.0 mph - N/A   Clear
11:53 PM 75.0 °F - 69.1 °F 82% 29.86 in 10.0 mi South 10.4 mph - N/A   Clear